Location: Ecklingerode
(51.5036°N, 10.3122°E)
Time: 00:33:00
(UTC+00:00)

Cosmos 1825 - Pass Details

Date: 29 October 2020
Orbit: 502 x 508 km, 82.5° (Epoch: 23 November)

Event Time Altitude Azimuth Distance (km) Brightness Sun altitude
Rises 17:08:37 0° 357° (N) 2,628 5.7 -11.7°
Reaches altitude 10° 17:10:58 10° 9° (N) 1,736 4.7 -12.1°
Maximum altitude 17:14:19 29° 71° (ENE) 964 3.0 -12.6°
Enters shadow 17:17:16 12° 129° (SE) 1,591 4.3 -13.0°
